Weather History for Garden City, KS

Change the Weather History Date:

Wednesday, February 13, 2013

  Actual Average Record
Temperature  
Mean Temperature 36 °F 34 °F  
Max Temperature 55 °F 48 °F 82 °F (1954)
Min Temperature 16 °F 21 °F -1 °F (1965)
Degree Days  
Heating Degree Days 29 31  
Month to date heating degree days 338 418  
Since 1 July heating degree days 3362 3598  
Cooling Degree Days 0 0  
Month to date cooling degree days 0 0  
Year to date cooling degree days 0 0  
Moisture  
Dew Point 11 °F    
Average Humidity 42    
Maximum Humidity 67    
Minimum Humidity 16    
Precipitation  
Precipitation 0.00 in 0.02 in 0.98 in (1969)
Month to date precipitation 0.00 0.22  
Year to date precipitation 0.13 0.56  
Sea Level Pressure  
Sea Level Pressure 30.01 in    
Wind  
Wind Speed 9 mph (WNW)    
Max Wind Speed 17 mph    
Max Gust Speed 24 mph    
Visibility 10 miles    
Events      
T = Trace of Precipitation, MM = Missing Value Source: NWS Daily Summary

Daily Weather History Graph

Daily Weather History Graph

Search for Another Location

Airport:

Trip Planner

Search our weather history database for the weather conditions in past years. The results will help you decide how hot, cold, wet, or windy it might be!

Date:

Astronomy

Feb. 13, 2013 Rise Set
Actual Time 7:34 AM CST 6:19 PM CST
Civil Twilight 7:07 AM CST 6:46 PM CST
Nautical Twilight 6:36 AM CST 7:17 PM CST
Astronomical Twilight 6:06 AM CST 7:48 PM CST
Moon 9:09 AM CST (2/13) 10:19 PM CST (2/13)
Length of Visible Light 11h 39m
Length of Day
10h 45m
Waxing Crescent, 14% of the Moon is Illuminated
Feb 13
Waxing Crescent
Feb 17
First Quarter
Feb 25
Full
Mar 4
Last Quarter
Mar 11
New

Hourly Weather History & Observations

Time (CST) Temp. Windchill Dew Point Humidity Pressure Visibility Wind Dir Wind Speed Gust Speed Precip Events Conditions
12:54 AM 19.0 °F 9.0 °F 6.1 °F 57% 30.08 in 10.0 mi WNW 8.1 mph - N/A   Clear
1:54 AM 17.1 °F 7.6 °F 6.1 °F 62% 30.06 in 10.0 mi WNW 6.9 mph - N/A   Clear
2:54 AM 19.0 °F 7.5 °F 8.1 °F 62% 30.06 in 10.0 mi WNW 10.4 mph - N/A   Clear
3:54 AM 23.0 °F 11.1 °F 8.1 °F 53% 30.06 in 10.0 mi NW 12.7 mph - N/A   Clear
4:54 AM 21.0 °F 9.9 °F 9.0 °F 60% 30.04 in 10.0 mi WNW 10.4 mph - N/A   Clear
5:54 AM 19.0 °F 10.0 °F 10.0 °F 68% 30.04 in 10.0 mi West 6.9 mph - N/A   Clear
6:54 AM 19.9 °F 7.9 °F 10.0 °F 65% 30.06 in 10.0 mi WNW 11.5 mph - N/A   Clear
7:54 AM 19.9 °F 11.1 °F 10.0 °F 65% 30.07 in 10.0 mi WNW 6.9 mph - N/A   Clear
8:54 AM 25.0 °F 14.8 °F 12.0 °F 58% 30.09 in 10.0 mi West 10.4 mph - N/A   Clear
9:54 AM 34.0 °F 26.6 °F 14.0 °F 44% 30.07 in 10.0 mi WSW 9.2 mph - N/A   Clear
10:54 AM 42.1 °F 37.7 °F 12.9 °F 31% 30.04 in 10.0 mi WSW 6.9 mph - N/A   Clear
11:54 AM 46.0 °F 41.9 °F 12.0 °F 25% 30.03 in 10.0 mi West 8.1 mph - N/A   Clear
12:54 PM 50.0 °F - 10.0 °F 20% 30.00 in 10.0 mi West 12.7 mph 24.2 mph N/A   Clear
1:54 PM 53.1 °F - 10.9 °F 19% 29.96 in 10.0 mi West 13.8 mph 19.6 mph N/A   Clear
2:54 PM 54.0 °F - 9.0 °F 17% 29.93 in 10.0 mi WNW 12.7 mph 20.7 mph N/A   Clear
3:54 PM 54.0 °F - 10.0 °F 17% 29.92 in 10.0 mi WNW 9.2 mph - N/A   Clear
4:54 PM 54.0 °F - 12.9 °F 20% 29.92 in 10.0 mi North 6.9 mph - N/A   Clear
5:54 PM 51.1 °F - 12.9 °F 22% 29.93 in 10.0 mi WNW 3.5 mph - N/A   Clear
6:54 PM 39.9 °F 34.5 °F 14.0 °F 35% 29.96 in 10.0 mi NNW 8.1 mph - N/A   Clear
7:54 PM 34.0 °F 27.2 °F 12.9 °F 42% 29.99 in 10.0 mi North 8.1 mph - N/A   Clear
8:54 PM 42.1 °F 38.4 °F 14.0 °F 32% 29.98 in 10.0 mi NNW 5.8 mph - N/A   Clear
9:54 PM 33.1 °F 26.9 °F 14.0 °F 46% 29.99 in 10.0 mi West 6.9 mph - N/A   Clear
10:54 PM 32.0 °F 25.6 °F 12.9 °F 45% 29.99 in 10.0 mi West 6.9 mph - N/A   Clear
11:54 PM 30.9 °F 22.8 °F 14.0 °F 50% 29.99 in 10.0 mi WNW 9.2 mph - N/A   Clear